PROBA-1 1 26958U 01049B 26170.19434830 .00001121 00000+0 75846-4 0 9990 2 26958 97.9594 178.7974 0056510 115.3010 245.4086 15.07498815343924 CUTE-1 (CO-55) 1 27844U 03031E 26169.93387238 .00000210 00000+0 10966-3 0 9996 2 27844 98.6735 178.4708 0009657 172.9759 187.1557 14.24336606191928 CUBESAT XI-IV (CO-57) 1 27848U 03031J 26169.99348946 .00000173 00000+0 94896-4 0 9992 2 27848 98.6765 178.2408 0009146 191.5731 168.5239 14.23621647191639 APRIZESAT 4 1 35684U 09041D 26170.14512813 .00000466 00000+0 62306-4 0 9997 2 35684 98.1412 245.5047 0042286 316.5628 43.2256 14.83881462911652 APRIZESAT 3 1 35686U 09041F 26170.17209211 .00001577 00000+0 14014-3 0 9993 2 35686 98.2067 323.4908 0062795 61.3500 299.4015 14.96247734916671 PROBA-2 1 36037U 09059B 26170.09741307 .00000120 00000+0 38591-4 0 9991 2 36037 98.2451 353.4236 0011944 275.5423 84.4412 14.54863103881806 APRIZESAT 5 1 37792U 11044E 26169.76376915 .00000861 00000+0 11598-3 0 9997 2 37792 98.2452 102.8488 0052213 359.2691 0.8435 14.81079046799026 APRIZESAT 6 1 37793U 11044F 26169.70424558 .00000606 00000+0 92657-4 0 9992 2 37793 98.2362 80.2348 0044486 81.3364 335.6808 14.76917858797379 PROBA-V 1 39159U 13021A 26169.38428133 .00000046 00000+0 38301-4 0 9998 2 39159 98.3584 147.9318 0005185 120.6226 239.5465 14.23597149681281 APRIZESAT 7 1 39416U 13066A 26170.09943272 .00000838 00000+0 88361-4 0 9999 2 39416 97.7709 123.2918 0035149 202.7946 157.1714 14.91567402681518 APRIZESAT 8 1 39425U 13066K 26170.09202275 .00000697 00000+0 81485-4 0 9993 2 39425 97.8221 117.5333 0044385 280.0839 79.5371 14.87655494679952 BUGSAT-1 (TITA) 1 40014U 14033E 26170.21496740 .00004530 00000+0 24018-3 0 9998 2 40014 98.0427 262.8822 0028273 171.5951 188.5759 15.15602342656146 SAUDISAT 4 1 40016U 14033G 26170.14774294 .00000507 00000+0 73371-4 0 9992 2 40016 97.7586 316.2145 0046097 67.8037 292.8057 14.79546947646368 APRIZESAT 9 1 40018U 14033J 26170.17595963 .00000554 00000+0 88749-4 0 9998 2 40018 97.9064 303.3260 0065848 192.7438 167.2109 14.74216862643855 APRIZESAT 10 1 40019U 14033K 26170.09944498 .00000336 00000+0 60934-4 0 9995 2 40019 97.9653 297.0162 0077399 267.6251 91.6093 14.70883822642537 TECHDEMOSAT-1 (TDS-1) 1 40076U 14037H 26169.94379529 .00006132 00000+0 34856-3 0 9994 2 40076 98.3815 162.3305 0004595 257.7313 102.3401 15.13313187648499 TECHNOSAT 1 42829U 17042E 26170.17743573 .00002913 00000+0 20885-3 0 9992 2 42829 97.4295 327.7591 0019097 87.9801 272.3613 15.04973153487007 FLYING LAPTOP 1 42831U 17042G 26170.18524899 .00002497 00000+0 19855-3 0 9996 2 42831 97.4698 325.6405 0019653 115.2156 245.1109 15.01155583486759 HAWK-A 1 43765U 18099H 26170.12014245 .00004819 00000+0 19510-3 0 9997 2 43765 97.3908 222.3311 0033080 278.7174 81.0317 15.24660995413394 HAWK-B 1 43794U 18099AN 26170.07827524 .00004709 00000+0 20175-3 0 9992 2 43794 97.3957 221.7010 0030385 297.9405 61.8756 15.22842337413320 HAWK-C 1 43799U 18099AT 26170.09231103 .00006022 00000+0 21764-3 0 9996 2 43799 97.3885 223.2253 0038707 278.7308 80.9549 15.28124217414202 SALSAT 1 46495U 20068K 26169.97697596 .00005999 00000+0 21050-3 0 9998 2 46495 97.8853 173.1506 0007950 300.6759 59.3696 15.29820569315637 HAWK-2C 1 47502U 21006CT 26170.17356149 .00005394 00000+0 16271-3 0 9999 2 47502 97.2274 214.4440 0006914 178.8250 181.3011 15.34683751299807 HAWK-2A 1 47505U 21006CW 26170.17603457 .00005413 00000+0 16320-3 0 9996 2 47505 97.2315 215.1253 0006340 181.6961 178.4262 15.34698574299804 HAWK-2B 1 47508U 21006CZ 26170.10625736 .00005667 00000+0 17025-3 0 9990 2 47508 97.2184 213.3857 0006941 180.3205 179.8035 15.34787353299790 HAWK-3B 1 48931U 21059BE 26170.10930514 .00036797 00000+0 31072-3 0 9998 2 48931 97.6658 6.9986 0003170 321.2469 38.8564 15.69695415278152 HAWK-3C 1 48948U 21059BX 26170.10898378 .00038765 00000+0 32725-3 0 9990 2 48948 97.6778 12.6871 0003417 323.0732 37.0294 15.69691623278155 HAWK-3A 1 48957U 21059CG 26170.10882588 .00037913 00000+0 31985-3 0 9997 2 48957 97.6722 9.8908 0003423 324.9397 35.1639 15.69711367278157 HAWK-5C 1 52754U 22057Y 26170.17258877 .00016161 00000+0 27539-3 0 9993 2 52754 97.6609 329.9671 0004883 77.5370 282.6427 15.51451275226659 HAWK-5B 1 52756U 22057AA 26170.17243560 .00016456 00000+0 28031-3 0 9993 2 52756 97.6616 328.3162 0005547 70.1865 289.9984 15.51453092226650 HAWK-5A 1 52757U 22057AB 26170.17222972 .00016373 00000+0 27894-3 0 9992 2 52757 97.6613 329.1476 0005456 73.1418 287.0431 15.51450863226650 HAWK-6B 1 55324U 23011A 26169.75691109 .00003855 00000+0 16889-3 0 9993 2 55324 40.4999 342.9161 0002093 11.2202 348.8654 15.22945454188088 HAWK-6C 1 55326U 23011C 26170.14970503 .00003719 00000+0 16324-3 0 9991 2 55326 40.4990 337.4637 0002925 2.9405 357.1421 15.22945182188155 HAWK-6A 1 55327U 23011D 26169.75630368 .00003921 00000+0 17164-3 0 9997 2 55327 40.4999 341.3824 0002681 355.8331 4.2456 15.22943830188093 HAWK-7A 1 56191U 23054P 26169.94477441 .00004282 00000+0 16244-3 0 9995 2 56191 97.2696 57.2372 0004199 53.2900 306.8724 15.27374986177299 HAWK-7B 1 56193U 23054R 26170.20674884 .00004640 00000+0 17579-3 0 9998 2 56193 97.2720 55.7571 0003636 65.1754 294.9863 15.27376474177337 HAWK-7C 1 56200U 23054Y 26170.14112186 .00004446 00000+0 16855-3 0 9992 2 56200 97.2698 56.4613 0003566 56.4523 303.7057 15.27376869177325